Location: Unspecified
(29.9680°N, 0.0000°E)
Time: 06:35:22
(UTC+00:00)

A-11 Canister half - Visible Passes

Search period start: 13 August 2020 00:00
Search period end: 23 August 2020 00:00
Orbit: 1527 x 1682 km, 47.3° (Epoch: 12 August)

Date Brightness Start Highest point End Pass type
(mag) Time Alt. Az. Time Alt. Az. Time Alt. Az.
13 Aug 11.0 20:14:26 10° W 20:19:50 16° WSW 20:25:10 10° SSW visible
14 Aug 11.0 19:52:19 10° W 19:58:15 18° WSW 20:04:06 10° SSW visible
15 Aug 11.0 19:30:16 10° W 19:36:40 19° WSW 19:42:57 10° SSW visible
16 Aug 11.0 19:08:16 10° W 19:15:04 21° SW 19:21:46 10° SSW visible
